| time (UTC) | temp F | wind direction | speed MPH | gust MPH | rain 1hr in | rain 24hr in | rain mn in | humidity % | barometer mb |
| 20260505121554 | 64 | 0 | 0.0 | 3.0 | 0.00 | 0.00 | 0.00 | 69 | 1010.9 |
| 20260505120111 | 63 | 281 | 0.0 | 3.0 | 0.00 | 0.00 | 0.00 | 70 | 1010.9 |
| 20260505114555 | 62 | 0 | 0.0 | 2.0 | 0.00 | 0.00 | 0.00 | 71 | 1010.8 |
| 20260505113054 | 61 | 0 | 0.0 | 0.0 | 0.00 | 0.00 | 0.00 | 74 | 1010.8 |
| 20260505111553 | 60 | 0 | 0.0 | 2.0 | 0.00 | 0.00 | 0.00 | 75 | 1010.8 |
| 20260505101555 | 60 | 0 | 0.0 | 3.0 | 0.00 | 0.00 | 0.00 | 75 | 1010.7 |
| 20260505100053 | 59 | 0 | 0.0 | 4.0 | 0.00 | 0.00 | 0.00 | 76 | 1010.4 |
| 20260505094551 | 58 | 0 | 0.0 | 1.0 | 0.00 | 0.00 | 0.00 | 77 | 1009.9 |
| 20260505093055 | 58 | 0 | 0.0 | 1.0 | 0.00 | 0.00 | 0.00 | 77 | 1009.8 |
| 20260505091553 | 58 | 0 | 0.0 | 2.0 | 0.00 | 0.00 | 0.00 | 77 | 1009.8 |
| 20260505090056 | 58 | 0 | 0.0 | 1.0 | 0.00 | 0.00 | 0.00 | 77 | 1009.8 |
| 20260505084554 | 58 | 0 | 0.0 | 3.0 | 0.00 | 0.00 | 0.00 | 77 | 1009.9 |
| 20260505083054 | 57 | 0 | 0.0 | 1.0 | 0.00 | 0.00 | 0.00 | 78 | 1009.8 |
| 20260505081600 | 56 | 0 | 0.0 | 1.0 | 0.00 | 0.00 | 0.00 | 78 | 1010.0 |
| 20260505080053 | 57 | 0 | 0.0 | 0.0 | 0.00 | 0.00 | 0.00 | 76 | 1010.0 |
| 20260505074558 | 57 | 0 | 0.0 | 1.0 | 0.00 | 0.00 | 0.00 | 75 | 1010.0 |
| 20260505073105 | 58 | 0 | 0.0 | 1.0 | 0.00 | 0.00 | 0.00 | 74 | 1009.9 |
| 20260505071600 | 58 | 0 | 0.0 | 1.0 | 0.00 | 0.00 | 0.00 | 74 | 1009.7 |
| 20260505070056 | 58 | 0 | 0.0 | 2.0 | 0.00 | 0.00 | 0.00 | 73 | 1009.7 |
| 20260505064555 | 58 | 0 | 0.0 | 0.0 | 0.00 | 0.00 | 0.00 | 72 | 1009.7 |
| 20260505063055 | 58 | 0 | 0.0 | 0.0 | 0.00 | 0.00 | 0.00 | 72 | 1009.6 |
| 20260505061600 | 58 | 0 | 0.0 | 1.0 | 0.00 | 0.00 | 0.00 | 71 | 1009.7 |
| 20260505054626 | 57 | 0 | 0.0 | 0.0 | 0.00 | 0.00 | 0.00 | 72 | 1009.9 |
| 20260505053107 | 57 | 0 | 0.0 | 0.0 | 0.00 | 0.00 | 0.00 | 70 | 1009.9 |
| 20260505051553 | 58 | 0 | 0.0 | 0.0 | 0.00 | 0.00 | 0.00 | 70 | 1010.1 |
| 20260505041559 | 59 | 0 | 0.0 | 1.0 | 0.00 | 0.00 | 0.00 | 67 | 1010.3 |
| 20260505040057 | 59 | 0 | 0.0 | 1.0 | 0.00 | 0.00 | 0.00 | 67 | 1010.2 |
| 20260505034558 | 59 | 0 | 0.0 | 0.0 | 0.00 | 0.00 | 0.00 | 66 | 1010.4 |
| 20260505033055 | 59 | 0 | 0.0 | 1.0 | 0.00 | 0.00 | 0.00 | 65 | 1010.3 |
| 20260505031610 | 60 | 0 | 0.0 | 0.0 | 0.00 | 0.00 | 0.00 | 63 | 1010.4 |
| 20260505030053 | 60 | 0 | 0.0 | 1.0 | 0.00 | 0.00 | 0.00 | 62 | 1010.6 |
| 20260505024559 | 61 | 0 | 0.0 | 1.0 | 0.00 | 0.00 | 0.00 | 60 | 1010.5 |
| 20260505023116 | 61 | 0 | 0.0 | 1.0 | 0.00 | 0.00 | 0.00 | 58 | 1010.6 |
| 20260505021556 | 62 | 0 | 0.0 | 1.0 | 0.00 | 0.00 | 0.00 | 57 | 1010.7 |
| 20260505020057 | 62 | 0 | 0.0 | 1.0 | 0.00 | 0.00 | 0.00 | 55 | 1010.7 |
| 20260505014604 | 63 | 0 | 0.0 | 1.0 | 0.00 | 0.00 | 0.00 | 54 | 1010.7 |
| 20260505013107 | 64 | 0 | 0.0 | 1.0 | 0.00 | 0.00 | 0.00 | 51 | 1010.6 |
| 20260505011555 | 64 | 0 | 0.0 | 1.0 | 0.00 | 0.00 | 0.00 | 48 | 1010.4 |
| 20260505010057 | 65 | 0 | 0.0 | 0.0 | 0.00 | 0.00 | 0.00 | 44 | 1010.2 |
| 20260505004558 | 67 | 0 | 0.0 | 1.0 | 0.00 | 0.00 | 0.00 | 42 | 1010.0 |
| 20260505003057 | 67 | 0 | 0.0 | 3.0 | 0.00 | 0.00 | 0.00 | 40 | 1009.8 |
| 20260505001555 | 69 | 0 | 0.0 | 4.0 | 0.00 | 0.00 | 0.00 | 38 | 1009.7 |
| 20260505000113 | 69 | 0 | 0.0 | 3.0 | 0.00 | 0.00 | 0.00 | 37 | 1009.3 |
| 20260504234552 | 70 | 0 | 0.0 | 4.0 | 0.00 | 0.00 | 0.00 | 36 | 1009.2 |
| 20260504233100 | 71 | 278 | 1.0 | 8.0 | 0.00 | 0.00 | 0.00 | 34 | 1009.1 |
| 20260504231603 | 72 | 288 | 1.0 | 9.0 | 0.00 | 0.00 | 0.00 | 33 | 1009.0 |
| 20260504230132 | 73 | 258 | 0.0 | 9.0 | 0.00 | 0.00 | 0.00 | 33 | 1008.8 |
| 20260504224555 | 74 | 271 | 1.0 | 8.0 | 0.00 | 0.00 | 0.00 | 31 | 1008.8 |
| 20260504223051 | 74 | 272 | 3.0 | 9.0 | 0.00 | 0.00 | 0.00 | 31 | 1008.8 |
| 20260504221603 | 74 | 0 | 1.0 | 10.0 | 0.00 | 0.00 | 0.00 | 33 | 1008.9 |
| 20260504220100 | 75 | 267 | 2.0 | 10.0 | 0.00 | 0.00 | 0.00 | 29 | 1009.1 |
| 20260504214556 | 75 | 265 | 3.0 | 13.0 | 0.00 | 0.00 | 0.00 | 33 | 1009.1 |
| 20260504213053 | 75 | 289 | 3.0 | 9.0 | 0.00 | 0.00 | 0.00 | 30 | 1009.3 |
| 20260504211553 | 75 | 0 | 2.0 | 11.0 | 0.00 | 0.00 | 0.00 | 30 | 1009.3 |
| 20260504210054 | 75 | 273 | 3.0 | 11.0 | 0.00 | 0.00 | 0.00 | 31 | 1009.3 |
| 20260504204602 | 74 | 0 | 2.0 | 13.0 | 0.00 | 0.00 | 0.00 | 30 | 1009.2 |
| 20260504203102 | 75 | 254 | 2.0 | 10.0 | 0.00 | 0.00 | 0.00 | 29 | 1009.2 |
| 20260504201552 | 74 | 272 | 1.0 | 8.0 | 0.00 | 0.00 | 0.00 | 31 | 1009.3 |
| 20260504200054 | 74 | 229 | 1.0 | 9.0 | 0.00 | 0.00 | 0.00 | 30 | 1009.3 |
| 20260504194553 | 74 | 276 | 3.0 | 9.0 | 0.00 | 0.00 | 0.00 | 31 | 1009.4 |
| 20260504193056 | 74 | 256 | 1.0 | 10.0 | 0.00 | 0.00 | 0.00 | 32 | 1009.5 |
| 20260504191606 | 74 | 0 | 1.0 | 8.0 | 0.00 | 0.00 | 0.00 | 34 | 1009.6 |
| 20260504190112 | 74 | 306 | 1.0 | 6.0 | 0.00 | 0.00 | 0.00 | 34 | 1009.9 |
| 20260504184555 | 73 | 310 | 1.0 | 10.0 | 0.00 | 0.00 | 0.00 | 34 | 1010.1 |
| 20260504183101 | 73 | 313 | 1.0 | 12.0 | 0.00 | 0.00 | 0.00 | 34 | 1010.4 |
| 20260504181557 | 73 | 264 | 1.0 | 11.0 | 0.00 | 0.00 | 0.00 | 34 | 1010.6 |
| 20260504180059 | 72 | 260 | 1.0 | 10.0 | 0.00 | 0.00 | 0.00 | 35 | 1010.6 |
| 20260504174554 | 71 | 272 | 2.0 | 9.0 | 0.00 | 0.00 | 0.00 | 34 | 1011.0 |
| 20260504173057 | 71 | 255 | 2.0 | 12.0 | 0.00 | 0.00 | 0.00 | 36 | 1011.0 |
| 20260504171553 | 70 | 258 | 1.0 | 9.0 | 0.00 | 0.00 | 0.00 | 37 | 1011.1 |